(158851) = 2000 OE53 = 2004 NV23

Discovered at Socorro on 2004-07-14 by LINEAR.

Orbit

Orbit type: Main Belt

Note: WebGL enabled browser required.

epoch2023-09-13.0
epoch JD2460200.5
perihelion date2020-10-19.30678
perihelion JD2459141.80678
argument of perihelion (°)142.86063
ascending node (°)235.48568
inclination (°)5.84500
eccentricity0.1876551
perihelion distance (AU)2.0263603
Tisserand w.r.t. Jupiter3.4
ΔV w.r.t. Earth (km/sec)9.1
semimajor axis (AU)2.4944580
mean anomaly (°)264.85591
mean daily motion (°/day)0.25017250
aphelion distance (AU)2.963
period (years)3.94
P-vector [x]0.94658496
P-vector [y]0.26596085
P-vector [z]0.18232317
Q-vector [x]-0.31134478
Q-vector [y]0.90098547
Q-vector [z]0.30214169
absolute magnitude16.16
phase slope0.15
uncertainty0
referenceMPEC 2023-X132
observations used969
oppositions18
arc length (days)8356
first opposition used2000
last opposition used2023
residual rms (arc-secs)0.68
perturbers coarse indicatorM-v
perturbers precise indicator003Ek
first observation date used2000-07-30.0
last observation date used2023-06-16.0
computer nameMPCLINUX
JD of orbit computation2456731.604312
perihelion JD uncertainty (days)8.6330E-05
argument of perihelion uncertainty (°)9.7295E-05
ascending node uncertainty (°)9.4984E-05
inclination uncertainty (°)4.3060E-06
eccentricity uncertainty 9.8315E-08
perihelion distance uncertainty (AU)2.3530E-07
Minimum Orbit Intersection Distances (in AU)
for orbit epoch: 2460200.5, reference: E2023-XD2
Mercury1.68664
Venus1.30802
Earth1.03162
Mars0.59893
Jupiter2.50733
Saturn6.55708
Uranus15.5542
Neptune27.7381

Observations

984 total observations over interval: 2000 07 30.30759 – 2023 06 16.395828
These data are available for download (format description).

Date (UT) J2000 RA J2000 Dec Magn Location Ref
2000 07 30.30759 20 58 23.58 -06 24 41.0 18.8   704 – Lincoln Laboratory ETS, New Mexico MPS 17919
2000 07 30.32090 20 58 22.82 -06 24 43.2 18.6   704 – Lincoln Laboratory ETS, New Mexico MPS 17919
2000 07 30.33414 20 58 22.12 -06 24 43.6 18.5   704 – Lincoln Laboratory ETS, New Mexico MPS 17919
2000 07 30.34732 20 58 21.29 -06 24 45.6 18.4   704 – Lincoln Laboratory ETS, New Mexico MPS 17919
2000 08 02.20974 20 55 45.95 -06 30 52.2 19.9 V 691 – Steward Observatory, Kitt Peak-Spacewatch MPS 17919
2000 08 02.23184 20 55 44.69 -06 30 55.3 20.3 V 691 – Steward Observatory, Kitt Peak-Spacewatch MPS 17919
2000 08 02.25306 20 55 43.47 -06 30 57.9 19.7 V 691 – Steward Observatory, Kitt Peak-Spacewatch MPS 17919
2000 09 03.18667 20 30 57.01 -08 32 08.4 18.9   704 – Lincoln Laboratory ETS, New Mexico MPS 112933
2000 09 03.21249 20 30 56.26 -08 32 14.9 18.9   704 – Lincoln Laboratory ETS, New Mexico MPS 112933
2000 09 03.22518 20 30 55.90 -08 32 18.5 19.2   704 – Lincoln Laboratory ETS, New Mexico MPS 112933
2000 09 03.23857 20 30 55.51 -08 32 20.7 19.5   704 – Lincoln Laboratory ETS, New Mexico MPS 112933
2002 02 07.18637 08 25 32.47 +09 56 10.3 20.1   644 – Palomar Mountain/NEAT MPS 112933
2002 02 07.20749 08 25 31.26 +09 56 15.3 19.9   644 – Palomar Mountain/NEAT MPS 112933
2002 02 07.22954 08 25 30.01 +09 56 20.3 20.2   644 – Palomar Mountain/NEAT MPS 112933
2003 04 28.29632 13 57 34.75 -15 27 56.6 20.9 V 691 – Steward Observatory, Kitt Peak-Spacewatch MPS 112933
2003 04 28.32303 13 57 33.30 -15 27 46.0 20.9 V 691 – Steward Observatory, Kitt Peak-Spacewatch MPS 112933
2003 04 28.34950 13 57 31.86 -15 27 35.8 20.6 V 691 – Steward Observatory, Kitt Peak-Spacewatch MPS 112933
2004 07 14.27898 21 55 00.77 -02 31 46.3 19.8   704 – Lincoln Laboratory ETS, New Mexico MPS 110797
2004 07 14.30883 21 55 00.16 -02 31 42.1 20.0   704 – Lincoln Laboratory ETS, New Mexico MPS 110797
2004 07 14.31932 21 54 59.91 -02 31 41.4 19.6   704 – Lincoln Laboratory ETS, New Mexico MPS 110797
2004 07 17.34477 21 53 56.92 -02 25 02.9 19.5   704 – Lincoln Laboratory ETS, New Mexico MPS 110797
2004 07 17.35554 21 53 56.58 -02 25 02.0 20.1   704 – Lincoln Laboratory ETS, New Mexico MPS 110797
2004 07 17.36631 21 53 56.38 -02 25 00.4 19.9   704 – Lincoln Laboratory ETS, New Mexico MPS 110797
2004 07 17.37726 21 53 56.01 -02 24 59.3 20.2   704 – Lincoln Laboratory ETS, New Mexico MPS 110797
2004 07 17.38809 21 53 55.65 -02 24 57.4 20.0   704 – Lincoln Laboratory ETS, New Mexico MPS 110797
2004 08 06.36406 21 41 27.12 -02 28 09.7 18.7   644 – Palomar Mountain/NEAT MPS 112933
2004 08 06.38637 21 41 25.98 -02 28 12.5 18.2   644 – Palomar Mountain/NEAT MPS 112933
2004 08 06.42353 21 41 24.08 -02 28 17.5 18.5   644 – Palomar Mountain/NEAT MPS 112933
2004 08 23.23529 21 26 53.01 -03 29 56.6 18.9 V 691 – Steward Observatory, Kitt Peak-Spacewatch MPS 112933
2004 08 23.26214 21 26 51.57 -03 30 04.5 18.7 V 691 – Steward Observatory, Kitt Peak-Spacewatch MPS 112933
2004 08 23.28919 21 26 50.12 -03 30 12.4 18.8 V 691 – Steward Observatory, Kitt Peak-Spacewatch MPS 112933
2004 09 08.17406 21 15 21.84 -04 55 04.4 18.8   704 – Lincoln Laboratory ETS, New Mexico MPS 112933
2004 09 08.18499 21 15 21.48 -04 55 07.7 19.1   704 – Lincoln Laboratory ETS, New Mexico MPS 112933
2004 09 08.19600 21 15 21.09 -04 55 11.4 19.1   704 – Lincoln Laboratory ETS, New Mexico MPS 112933
2004 09 08.20706 21 15 20.67 -04 55 15.0 19.5   704 – Lincoln Laboratory ETS, New Mexico MPS 112933
2004 09 08.21798 21 15 20.33 -04 55 18.3 19.2   704 – Lincoln Laboratory ETS, New Mexico MPS 112933
2004 09 13.17438 21 12 57.53 -05 22 19.1 19.1   704 – Lincoln Laboratory ETS, New Mexico MPS 112933
2004 09 13.18612 21 12 57.22 -05 22 22.9 19.9   704 – Lincoln Laboratory ETS, New Mexico MPS 112933
2004 09 13.19839 21 12 56.89 -05 22 26.4 19.3   704 – Lincoln Laboratory ETS, New Mexico MPS 112933
2004 09 13.21017 21 12 56.59 -05 22 30.5 19.7   704 – Lincoln Laboratory ETS, New Mexico MPS 112933
2004 09 13.22203 21 12 56.21 -05 22 34.1 19.3   704 – Lincoln Laboratory ETS, New Mexico MPS 112933
2004 09 18.18621 21 11 18.30 -05 48 22.8 19.4   704 – Lincoln Laboratory ETS, New Mexico MPS 114368
2004 09 18.19811 21 11 18.15 -05 48 26.4 19.4   704 – Lincoln Laboratory ETS, New Mexico MPS 114368
2004 09 18.20992 21 11 17.94 -05 48 30.2 19.5   704 – Lincoln Laboratory ETS, New Mexico MPS 114368
2004 09 18.22173 21 11 17.69 -05 48 33.5 19.7   704 – Lincoln Laboratory ETS, New Mexico MPS 114368
2004 09 18.23353 21 11 17.50 -05 48 37.1 19.1   704 – Lincoln Laboratory ETS, New Mexico MPS 114368
2004 10 03.11293 21 11 17.60 -06 51 42.8 19.0   644 – Palomar Mountain/NEAT MPS 115743
2004 10 03.13275 21 11 17.86 -06 51 47.0 18.7   644 – Palomar Mountain/NEAT MPS 115743
2004 10 03.15399 21 11 18.13 -06 51 51.3 18.8   644 – Palomar Mountain/NEAT MPS 115743
2004 10 07.17621 21 12 33.79 -07 04 08.2 19.0   704 – Lincoln Laboratory ETS, New Mexico MPS 115743
2004 10 07.18679 21 12 34.04 -07 04 10.0 19.8   704 – Lincoln Laboratory ETS, New Mexico MPS 115743
2004 10 07.19736 21 12 34.28 -07 04 12.1 19.7   704 – Lincoln Laboratory ETS, New Mexico MPS 115743
2004 10 07.20794 21 12 34.55 -07 04 12.6 20.0   704 – Lincoln Laboratory ETS, New Mexico MPS 115743
2004 10 07.21852 21 12 34.70 -07 04 14.4 19.8   704 – Lincoln Laboratory ETS, New Mexico MPS 115743
2004 10 10.10646 21 13 48.82 -07 11 36.5 19.9   704 – Lincoln Laboratory ETS, New Mexico MPS 116625
2004 10 10.10831 21 13 48.95 -07 11 37.6 18.6   644 – Palomar Mountain/NEAT MPS 116625
2004 10 10.11737 21 13 49.09 -07 11 39.0 19.5   704 – Lincoln Laboratory ETS, New Mexico MPS 116625
2004 10 10.12897 21 13 49.49 -07 11 40.8 18.8   644 – Palomar Mountain/NEAT MPS 116625
2004 10 10.12935 21 13 49.47 -07 11 39.5 19.9   704 – Lincoln Laboratory ETS, New Mexico MPS 116625
2004 10 10.14011 21 13 49.75 -07 11 43.6 19.6   704 – Lincoln Laboratory ETS, New Mexico MPS 116625
2004 10 10.15270 21 13 50.15 -07 11 43.9 19.1   644 – Palomar Mountain/NEAT MPS 116625
2006 02 07.29787 08 57 25.92 +07 39 08.0 20.1 V 703 – Catalina Sky Survey MPS 162782
2006 02 07.30427 08 57 25.70 +07 39 07.2 20.8 V 703 – Catalina Sky Survey MPS 162782
2006 02 07.31071 08 57 25.20 +07 39 09.1 20.4 V 703 – Catalina Sky Survey MPS 162782
2006 02 07.31713 08 57 24.94 +07 39 12.2 20.1 V 703 – Catalina Sky Survey MPS 162782
2006 02 07.35569 08 57 22.60 +07 39 21.0 20.7 V 703 – Catalina Sky Survey MPS 162782
2006 02 07.36323 08 57 22.14 +07 39 22.1 20.1 V 703 – Catalina Sky Survey MPS 162782
2006 02 07.37079 08 57 21.60 +07 39 26.1 19.3 V 703 – Catalina Sky Survey MPS 162782
2006 02 07.37836 08 57 21.20 +07 39 25.2 20.0 V 703 – Catalina Sky Survey MPS 162782
2007 04 19.31273 14 30 26.50 -17 50 20.8 20.8 V 691 – Steward Observatory, Kitt Peak-Spacewatch MPS 206886
2007 04 19.33113 14 30 25.53 -17 50 14.8 20.9 V 691 – Steward Observatory, Kitt Peak-Spacewatch MPS 206886
2007 04 19.34978 14 30 24.52 -17 50 08.6 20.6 V 691 – Steward Observatory, Kitt Peak-Spacewatch MPS 206886
2007 04 23.28378 14 26 56.24 -17 28 05.4   691 – Steward Observatory, Kitt Peak-Spacewatch MPS 208055
2007 04 23.30340 14 26 55.17 -17 27 58.8   691 – Steward Observatory, Kitt Peak-Spacewatch MPS 208055
2007 04 23.32252 14 26 54.09 -17 27 52.7   691 – Steward Observatory, Kitt Peak-Spacewatch MPS 208055
2007 04 27.29428 14 23 18.90 -17 04 26.1 20.6 V 691 – Steward Observatory, Kitt Peak-Spacewatch MPS 208055
2007 04 27.32715 14 23 17.00 -17 04 14.2 20.6 V 691 – Steward Observatory, Kitt Peak-Spacewatch MPS 208055
2007 04 27.34483 14 23 16.07 -17 04 08.3 21.0 V 691 – Steward Observatory, Kitt Peak-Spacewatch MPS 208055
2007 05 13.25904 14 09 15.91 -15 25 11.6 20.6 V G96 – Mt. Lemmon Survey MPS 208898
2007 05 13.26481 14 09 15.66 -15 25 09.1 20.1 V G96 – Mt. Lemmon Survey MPS 208898
2007 05 13.27074 14 09 15.37 -15 25 07.0 20.2 V G96 – Mt. Lemmon Survey MPS 208898
2007 05 13.27653 14 09 15.04 -15 25 05.1 20.3 V G96 – Mt. Lemmon Survey MPS 208898
2008 07 27.93389 22 36 48.23 +02 02 44.0 19.1 V A50 – Andrushivka Astronomical Observatory MPS 253466
2008 07 27.93549 22 36 48.13 +02 02 42.5 18.9 V A50 – Andrushivka Astronomical Observatory MPS 253466
